Regional Weather Roundup
Issued by NWS

Home | Current Version | Previous Version | Text Only | Print | Product List | Glossary On
Versions: 1 2 3 4 5 6 7 8 9 10 11 12 13 14 15 16 17 18 19 20 21 22 23 24 25 26 27 28 29 30 31 32 33 34 35 36 37 38 39 40 41 42 43 44 45 46 47 48 49 50
000
ASHW40 PHFO 231312
RWRHI

WEATHER ROUNDUP FOR HAWAII
NATIONAL WEATHER SERVICE HONOLULU HI
300 AM HST SAT JUL 23 2016

THIS IS AN AUTOMATED REPORT THAT HAS NOT BEEN QUALITY CONTROLLED.

NOTE..."FAIR" INDICATES FEW OR NO CLOUDS BELOW 12,000 FEET WITH NO
SIGNIFICANT WEATHER AND/OR OBSTRUCTIONS TO VISIBILITY.

* - THESE SITES REPORT LIMITED FIELDS

HIZ001>004-231400-
KAUAI-NIIHAU-

CITY           SKY/WX    TMP DP  RH WIND       PRES   REMARKS
LIHUE APT      CLOUDY    75  70  84 NE24      29.98F
PORT ALLEN*      N/A     75 N/A N/A E16         N/A
POIPU*           N/A     73 N/A N/A NE8G18      N/A
PRINCEVILLE*     N/A     73 N/A N/A S3          N/A
KOKOLE POINT*  NOT AVBL
MOLOAA DAIRY*    N/A     73  70  88 NE2G9       N/A
WAIMEA HTS*    NOT AVBL
PUU OPAE*      NOT AVBL
PUU LUA*       NOT AVBL
MAKAHA RIDGE*  NOT AVBL
$$

HIZ005>011-231400-
OAHU-

CITY           SKY/WX    TMP DP  RH WIND       PRES   REMARKS
HONOLULU       MOCLDY    78  65  63 NE12      29.93S
KALAELOA       MOCLDY    78  65  63 NE7       29.94F
KANEOHE MCB    LGT RAIN  78  69  73 NE13      29.92S
WHEELER FIELD  FAIR      73  66  78 NW7       29.96S
BELLOWS*       NOT AVBL
KAHUKU*        NOT AVBL
WHEELER*       NOT AVBL
WAIANAE HARBOR NOT AVBL
DILLINGHAM*      N/A     82  73  74 MISG        N/A
KAHUKU TRN*      N/A     73  66  78 W8G23       N/A
KAWAILOA*        N/A     72  64  78 NE9G23      N/A
KII*             N/A     77  68  73 NE17G25     N/A
MAKUA RANGE*     N/A     86  75  70 W7G13       N/A  HX  95
OAHU FOREST NW NOT AVBL
SCHOFIELD BRK*   N/A     79  72  78 MISG        N/A
SCHOFIELD S*   NOT AVBL
WAIANAE VLY*   NOT AVBL
KUAOKALA*      NOT AVBL
HONOULIUULI*   NOT AVBL
MOKUOLOE IS*   NOT AVBL
PALEHUA*       NOT AVBL
WAIAWA PHB*    NOT AVBL
$$

HIZ012>013-231400-
MOLOKAI-

CITY           SKY/WX    TMP DP  RH WIND       PRES   REMARKS
MOLOKAI AIRPT  LGT RAIN  76  69  79 NE15G24   29.94S
KALAUPAPA      NOT AVBL
MAKAPULAPAI*   NOT AVBL
MOLOKAI 1*     NOT AVBL
PUU ALII*      NOT AVBL
$$

HIZ016-231400-
KAHOOLAWE-

CITY           SKY/WX    TMP DP  RH WIND       PRES   REMARKS
KAHOOLAWE*     NOT AVBL
HAKIOAWA*      NOT AVBL
HONOKANAIA*      N/A     78  70  76 N20G33    29.83F
KANELOA*         N/A     75  70  83 VRB24G35  29.94
KEALIALALO*    NOT AVBL
LUA MAKIKA*    NOT AVBL
$$

HIZ014>015-231400-
LANAI-

CITY           SKY/WX    TMP DP  RH WIND       PRES   REMARKS
LANAI CITY     FAIR      71  65  81 NE25G32   29.93F
LANAI 1*       NOT AVBL
$$

HIZ017>028-231400-
MAUI-

CITY           SKY/WX    TMP DP  RH WIND       PRES   REMARKS
KAHULUI        CLOUDY    77  71  82 NE16      29.91F
KAPALUA-W MAUI NOT AVBL
HANA AIRPORT     N/A     77  72  83 N9        29.95S
HANA*          NOT AVBL
HALEAKALA SUMM   N/A     46  46 100 NE8G26      N/A
MAALAEA BAY*   NOT AVBL
HALEAKALA*     NOT AVBL
KAUPO GAP*     NOT AVBL
KULA 1*          N/A     54  40  60 NE3         N/A
$$

HIZ023>026-231400-
BIG ISLAND OF HAWAII COAST AND LOWER SLOPES-

CITY           SKY/WX    TMP DP  RH WIND       PRES   REMARKS
KAILUA KONA    FAIR      80  71  74 N14G20    29.81F
HILO           HVY RAIN  75  75 100 N18G24    29.84F FOG
HONOKAA*         N/A     70 N/A N/A VRB1        N/A
KAWAIHAE MWT*    N/A     82 N/A N/A E2          N/A
KAWAIHAE*      NOT AVBL
SOUTH POINT*     N/A     73 N/A N/A SW6         N/A
UPOLU AIRPORT* NOT AVBL
KAMUELA*       CLOUDY    68  66  94 NE14G28   29.96S
HAKALAU*         N/A     58  57  98 N5G12       N/A
KALOKO-HONOKO* NOT AVBL
PALI 2*          N/A     72  64  78 S16G29      N/A
KEALAKOMO*       N/A     79  68  69 N31G49      N/A
KAUPULEHU*     NOT AVBL
KAPAPALA*        N/A     69  67  94 W5          N/A
LOWER KAHUKU*  NOT AVBL
PUHE CS*       NOT AVBL
PUHO CS*       NOT AVBL
PTA KEAMUKU*     N/A     66  64  94 CALM        N/A
WAIKOLOA*      NOT AVBL
$$

HIZ027>028-231400-
BIG ISLAND OF HAWAII INTERIOR AND SUMMMITS-

CITY           SKY/WX    TMP DP  RH WIND       PRES   REMARKS
BRADSHAW FIELD MOCLDY    57  48  73 SE3       30.21F
MK VISITOR CEN   N/A     54  46  76 NE12        N/A
MAUNA KEA*       N/A     39  39 100 E54         N/A  WCI  24
MAUNA LOA*     NOT AVBL
MAUNA LOA 1*   NOT AVBL
PTA KIPUKA*      N/A     73  73 100 E3          N/A
PTA RANGE 17*    N/A     59  48  67 E5          N/A
PTA WEST*        N/A     57  52  82 SE8         N/A
NENE CABIN*    NOT AVBL
AHUMOA*        NOT AVBL
PTA PORTABLE*  NOT AVBL
PUU MALI*        N/A     57  57 100 E12G21      N/A
$$

HIC003-231400-
NORTHWEST ISLANDS-

CITY           SKY/WX    TMP DP  RH WIND       PRES   REMARKS
MIDWAY ISLAND  CLOUDY    79  73  83 SE17      30.02F
MIDWAY NOS*    NOT AVBL
FRENCH FRIGATE NOT AVBL
$$

PHZ110>124-180-231400-
BUOY REPORTS

STATION/POSITION TIME  TEMP    WIND        PRES    WAVE   SWELL
                       AIR SEA DIR/SP/G            HT/PER HT/DIR
                 (UTC) (F)     (DEG/KT/KT) (MB)    (FT/S) (FT/D)
BUOY 51001       1200   81 82   90/ 16/ 17 1015.8F
BUOY 51101       1250   76 78   60/ 16/ 19 1017.0F  10/13   8/ 80
BUOY 51100       NOT AVBL
BUOY 51002       1150   81 82   90/ 14/ 17 1012.9    7/ 9   7
BUOY 51003       1150   80 81   60/ 14/ 17 1013.1    8/ 8   7/ 30
BUOY 51004       1150   80 81  200/ 17/ 23 1009.2    8/10   7/ 60
BARBERS PT BUOY  NOT AVBL
WAIMEA BAY BUOY  1234      79                N/A     6/ 9   2/ 50
KAILUA BAY BUOY  1241      80                N/A     9/11   5/100
LANAI BUOY       1215      81                N/A     3/13   2/200
BARBERS PT 2     NOT AVBL
PAUWELA MAUI     1209      79                N/A    10/10   5/ 90
HILO             1212      80                N/A    15/11  10/ 90
KANEOHE BAY BUOY 1236      79                N/A     8/11   3/ 70
HANALEI KAUAI    NOT AVBL
KAHULUI HARBOR   1200   78 81   30/ 15/ 20 1013.3F
HONOLULU HARBOR  1200   78 80   80/  5/ 11 1014.2F
KILO NALU        NOT AVBL
HILO HARBOR      1200   75 76  340/ 26/ 30 1010.7F
MOKUOLOE         1200   79 81   60/ 16/ 17 1014.0F
NAWILIWILI       1200   74 81   50/ 13/ 18 1015.3F
WHOTS BUOY       NOT AVBL
BUOY 51028       NOT AVBL
$$

......................KEY........................................
  SKY/WX - SKY CONDITIONS/PRESENT WEATHER
  TMP    - TEMPERATURE IN FAHRENHEIT
  DWPT   - DEWPOINT IN FAHRENHEIT
  RH     - RELATIVE HUMIDITY IN PERCENT
  WIND   - DIRECTION AND SPEED /MPH FOR ISLANDS...KTS FOR BUOYS/
  PRES   - MEAN SEA LEVEL PRESSURE IN INCHES OF HG
  VSB    - VISIBILITY IN MILES
  HX     - HEAT INDEX
  WCI    - WIND CHILL INDEX
  VRB    - VARIABLE WIND DIRECTION
  N/A    - NOT AVAILABLE



USA.gov is the U.S. government's official web portal to all federal, state and local government web resources and services.